Time,TemperatureF,DewpointF,PressureIn,WindDirection,WindDirectionDegrees,WindSpeedMPH,WindSpeedGustMPH,Humidity,HourlyPrecipIn,Conditions,Clouds,dailyrainin,SoftwareType,DateUTC
2014-09-19 00:02:00,75.0,74.7,29.94,NE,34,0.0,0.0,99,0.00,,,0.00,WUHU216DAVISVP2,2014-09-19 04:02:00,
2014-09-19 00:07:00,75.1,74.8,29.94,NE,34,0.0,0.0,99,0.00,,,0.00,WUHU216DAVISVP2,2014-09-19 04:07:00,
2014-09-19 00:12:00,75.0,74.7,29.94,NE,34,0.0,0.0,99,0.00,,,0.00,WUHU216DAVISVP2,2014-09-19 04:12:00,
2014-09-19 00:17:00,74.9,74.6,29.94,NE,34,0.0,0.0,99,0.00,,,0.00,WUHU216DAVISVP2,2014-09-19 04:17:00,
2014-09-19 00:22:00,74.8,74.5,29.93,NE,34,0.0,0.0,99,0.00,,,0.00,WUHU216DAVISVP2,2014-09-19 04:22:00,
2014-09-19 00:27:00,74.6,74.0,29.93,NE,34,0.0,0.0,98,0.00,,,0.00,WUHU216DAVISVP2,2014-09-19 04:27:00,
2014-09-19 00:32:00,74.5,74.2,29.94,NE,34,0.0,0.0,99,0.00,,,0.00,WUHU216DAVISVP2,2014-09-19 04:32:00,
2014-09-19 00:37:00,74.5,74.2,29.93,NE,34,0.0,0.0,99,0.00,,,0.00,WUHU216DAVISVP2,2014-09-19 04:37:00,
2014-09-19 00:42:00,74.5,74.2,29.93,NE,34,0.0,0.0,99,0.00,,,0.00,WUHU216DAVISVP2,2014-09-19 04:42:00,
2014-09-19 00:47:00,74.5,74.2,29.93,NE,34,0.0,0.0,99,0.00,,,0.00,WUHU216DAVISVP2,2014-09-19 04:47:00,
2014-09-19 00:52:00,74.3,74.0,29.93,NE,34,0.0,0.0,99,0.00,,,0.00,WUHU216DAVISVP2,2014-09-19 04:52:00,
2014-09-19 00:57:00,74.3,74.0,29.93,NE,34,0.0,0.0,99,0.00,,,0.00,WUHU216DAVISVP2,2014-09-19 04:57:00,
2014-09-19 01:02:00,74.2,73.9,29.93,NE,34,0.0,0.0,99,0.00,,,0.00,WUHU216DAVISVP2,2014-09-19 05:02:00,
2014-09-19 01:07:00,74.3,74.0,29.93,NE,34,0.0,0.0,99,0.00,,,0.00,WUHU216DAVISVP2,2014-09-19 05:07:00,
2014-09-19 01:12:00,74.3,74.0,29.93,NE,34,0.0,0.0,99,0.00,,,0.00,WUHU216DAVISVP2,2014-09-19 05:12:00,
2014-09-19 01:17:00,74.2,73.9,29.93,NE,34,0.0,0.0,99,0.00,,,0.00,WUHU216DAVISVP2,2014-09-19 05:17:00,
2014-09-19 01:22:00,74.1,73.8,29.93,NE,34,0.0,0.0,99,0.00,,,0.00,WUHU216DAVISVP2,2014-09-19 05:22:00,
2014-09-19 01:27:00,74.0,73.7,29.93,NE,34,0.0,0.0,99,0.00,,,0.00,WUHU216DAVISVP2,2014-09-19 05:27:00,
2014-09-19 01:32:00,74.1,73.8,29.93,NE,34,0.0,0.0,99,0.00,,,0.00,WUHU216DAVISVP2,2014-09-19 05:32:00,
2014-09-19 01:37:00,74.1,73.8,29.93,NE,34,0.0,0.0,99,0.00,,,0.00,WUHU216DAVISVP2,2014-09-19 05:37:00,
2014-09-19 01:42:00,74.0,73.7,29.92,NE,34,0.0,0.0,99,0.00,,,0.00,WUHU216DAVISVP2,2014-09-19 05:42:00,
2014-09-19 01:47:00,74.0,73.7,29.92,NE,34,0.0,0.0,99,0.00,,,0.00,WUHU216DAVISVP2,2014-09-19 05:47:00,
2014-09-19 01:52:00,73.8,73.5,29.92,NE,34,0.0,0.0,99,0.00,,,0.00,WUHU216DAVISVP2,2014-09-19 05:52:00,
2014-09-19 01:57:00,73.8,73.5,29.93,NE,34,0.0,0.0,99,0.00,,,0.00,WUHU216DAVISVP2,2014-09-19 05:57:00,
2014-09-19 02:02:00,73.8,73.5,29.93,NE,34,0.0,0.0,99,0.00,,,0.00,WUHU216DAVISVP2,2014-09-19 06:02:00,
2014-09-19 02:03:00,73.8,73.5,29.93,NE,34,0.0,0.0,99,0.00,,,0.00,WUHU216DAVISVP2,2014-09-19 06:03:00,
2014-09-19 02:08:00,73.8,73.5,29.92,NE,34,0.0,0.0,99,0.00,,,0.00,WUHU216DAVISVP2,2014-09-19 06:08:00,
2014-09-19 02:13:00,73.7,73.4,29.92,NE,34,0.0,0.0,99,0.00,,,0.00,WUHU216DAVISVP2,2014-09-19 06:13:00,
2014-09-19 02:18:00,73.5,73.2,29.92,NE,34,0.0,0.0,99,0.00,,,0.00,WUHU216DAVISVP2,2014-09-19 06:18:00,
2014-09-19 02:23:00,73.6,73.3,29.92,NE,34,0.0,0.0,99,0.00,,,0.00,WUHU216DAVISVP2,2014-09-19 06:23:00,
2014-09-19 02:28:00,73.5,73.2,29.92,NE,34,0.0,0.0,99,0.00,,,0.00,WUHU216DAVISVP2,2014-09-19 06:28:00,
2014-09-19 02:33:00,73.4,73.1,29.92,NE,34,0.0,0.0,99,0.00,,,0.00,WUHU216DAVISVP2,2014-09-19 06:33:00,
2014-09-19 02:38:00,73.4,73.1,29.92,NE,34,0.0,0.0,99,0.00,,,0.00,WUHU216DAVISVP2,2014-09-19 06:38:00,
2014-09-19 02:43:00,73.5,73.2,29.92,NE,34,0.0,0.0,99,0.00,,,0.00,WUHU216DAVISVP2,2014-09-19 06:43:00,
2014-09-19 02:48:00,73.5,73.2,29.92,NE,34,0.0,0.0,99,0.00,,,0.00,WUHU216DAVISVP2,2014-09-19 06:48:00,
2014-09-19 02:53:00,73.5,73.2,29.91,NE,34,0.0,0.0,99,0.00,,,0.00,WUHU216DAVISVP2,2014-09-19 06:53:00,
2014-09-19 02:58:00,73.5,73.2,29.92,NE,34,0.0,0.0,99,0.00,,,0.00,WUHU216DAVISVP2,2014-09-19 06:58:00,
2014-09-19 03:03:00,73.5,73.2,29.91,NE,34,0.0,0.0,99,0.00,,,0.00,WUHU216DAVISVP2,2014-09-19 07:03:00,
2014-09-19 03:08:00,73.4,73.1,29.92,NE,34,0.0,0.0,99,0.00,,,0.00,WUHU216DAVISVP2,2014-09-19 07:08:00,
2014-09-19 03:13:00,73.4,73.1,29.91,NE,34,0.0,0.0,99,0.00,,,0.00,WUHU216DAVISVP2,2014-09-19 07:13:00,
2014-09-19 03:18:00,73.4,73.1,29.92,NE,34,0.0,0.0,99,0.00,,,0.00,WUHU216DAVISVP2,2014-09-19 07:18:00,
2014-09-19 03:23:00,73.3,73.0,29.92,NE,34,0.0,0.0,99,0.00,,,0.00,WUHU216DAVISVP2,2014-09-19 07:23:00,
2014-09-19 03:28:00,73.3,73.0,29.91,NE,34,0.0,0.0,99,0.00,,,0.00,WUHU216DAVISVP2,2014-09-19 07:28:00,
2014-09-19 03:33:00,73.3,73.0,29.91,NE,34,0.0,0.0,99,0.00,,,0.00,WUHU216DAVISVP2,2014-09-19 07:33:00,
2014-09-19 03:38:00,73.3,73.0,29.91,NE,34,0.0,0.0,99,0.00,,,0.00,WUHU216DAVISVP2,2014-09-19 07:38:00,
2014-09-19 03:43:00,73.2,72.9,29.91,NE,34,0.0,0.0,99,0.00,,,0.00,WUHU216DAVISVP2,2014-09-19 07:43:00,
2014-09-19 03:48:00,73.3,73.0,29.91,NE,34,0.0,0.0,99,0.00,,,0.00,WUHU216DAVISVP2,2014-09-19 07:48:00,
2014-09-19 03:53:00,73.2,72.9,29.91,NE,34,0.0,0.0,99,0.00,,,0.00,WUHU216DAVISVP2,2014-09-19 07:53:00,
2014-09-19 03:58:00,73.2,72.9,29.91,NE,34,0.0,0.0,99,0.00,,,0.00,WUHU216DAVISVP2,2014-09-19 07:58:00,
2014-09-19 04:03:00,73.1,72.8,29.91,NE,34,0.0,0.0,99,0.00,,,0.00,WUHU216DAVISVP2,2014-09-19 08:03:00,
2014-09-19 04:08:00,73.2,72.9,29.91,NE,34,0.0,0.0,99,0.00,,,0.00,WUHU216DAVISVP2,2014-09-19 08:08:00,
2014-09-19 04:13:00,73.2,72.9,29.91,NE,34,0.0,0.0,99,0.00,,,0.00,WUHU216DAVISVP2,2014-09-19 08:13:00,
2014-09-19 04:18:00,73.2,72.9,29.91,NE,34,0.0,0.0,99,0.00,,,0.00,WUHU216DAVISVP2,2014-09-19 08:18:00,
2014-09-19 04:23:00,73.3,73.0,29.91,NE,34,0.0,0.0,99,0.00,,,0.00,WUHU216DAVISVP2,2014-09-19 08:23:00,
2014-09-19 04:28:00,73.3,73.0,29.91,NE,34,0.0,0.0,99,0.00,,,0.00,WUHU216DAVISVP2,2014-09-19 08:28:00,
2014-09-19 04:33:00,73.3,73.0,29.91,NE,34,0.0,0.0,99,0.00,,,0.00,WUHU216DAVISVP2,2014-09-19 08:33:00,
2014-09-19 04:38:00,73.3,73.0,29.91,NE,34,0.0,0.0,99,0.00,,,0.00,WUHU216DAVISVP2,2014-09-19 08:38:00,
2014-09-19 04:43:00,73.2,72.9,29.91,NE,34,0.0,0.0,99,0.00,,,0.00,WUHU216DAVISVP2,2014-09-19 08:43:00,
2014-09-19 04:48:00,73.1,72.8,29.91,NE,34,0.0,0.0,99,0.00,,,0.00,WUHU216DAVISVP2,2014-09-19 08:48:00,
2014-09-19 04:53:00,73.2,72.9,29.91,NE,34,0.0,0.0,99,0.00,,,0.00,WUHU216DAVISVP2,2014-09-19 08:53:00,
2014-09-19 04:58:00,73.2,72.9,29.91,NE,34,0.0,0.0,99,0.00,,,0.00,WUHU216DAVISVP2,2014-09-19 08:58:00,
2014-09-19 05:03:00,73.1,72.8,29.91,NE,34,0.0,0.0,99,0.00,,,0.00,WUHU216DAVISVP2,2014-09-19 09:03:00,
2014-09-19 05:08:00,73.2,72.9,29.91,NE,34,0.0,0.0,99,0.00,,,0.00,WUHU216DAVISVP2,2014-09-19 09:08:00,
2014-09-19 05:13:00,73.2,72.9,29.91,NE,34,0.0,0.0,99,0.00,,,0.00,WUHU216DAVISVP2,2014-09-19 09:13:00,
2014-09-19 05:18:00,73.1,72.8,29.91,NE,34,0.0,0.0,99,0.00,,,0.00,WUHU216DAVISVP2,2014-09-19 09:18:00,
2014-09-19 05:23:00,73.1,72.8,29.91,NE,34,0.0,0.0,99,0.00,,,0.00,WUHU216DAVISVP2,2014-09-19 09:23:00,
2014-09-19 05:28:00,73.0,72.7,29.91,NE,34,0.0,0.0,99,0.00,,,0.00,WUHU216DAVISVP2,2014-09-19 09:28:00,
2014-09-19 05:33:00,73.1,72.8,29.91,NE,34,0.0,0.0,99,0.00,,,0.00,WUHU216DAVISVP2,2014-09-19 09:33:00,
2014-09-19 05:38:00,73.1,72.8,29.92,NE,34,0.0,0.0,99,0.00,,,0.00,WUHU216DAVISVP2,2014-09-19 09:38:00,
2014-09-19 05:43:00,73.1,72.8,29.91,NE,34,0.0,0.0,99,0.00,,,0.00,WUHU216DAVISVP2,2014-09-19 09:43:00,
2014-09-19 05:48:00,73.2,72.9,29.92,NE,34,0.0,0.0,99,0.00,,,0.00,WUHU216DAVISVP2,2014-09-19 09:48:00,
2014-09-19 05:53:00,73.1,72.8,29.92,NE,34,0.0,0.0,99,0.00,,,0.00,WUHU216DAVISVP2,2014-09-19 09:53:00,
2014-09-19 05:58:00,73.1,72.8,29.91,NE,34,0.0,0.0,99,0.00,,,0.00,WUHU216DAVISVP2,2014-09-19 09:58:00,
2014-09-19 06:03:00,73.1,72.8,29.91,NE,34,0.0,0.0,99,0.00,,,0.00,WUHU216DAVISVP2,2014-09-19 10:03:00,
2014-09-19 06:08:00,72.9,72.6,29.92,NE,34,0.0,0.0,99,0.00,,,0.00,WUHU216DAVISVP2,2014-09-19 10:08:00,
2014-09-19 06:13:00,73.0,72.7,29.92,NE,34,0.0,0.0,99,0.00,,,0.00,WUHU216DAVISVP2,2014-09-19 10:13:00,
2014-09-19 06:18:00,73.0,72.7,29.92,NE,34,0.0,0.0,99,0.00,,,0.00,WUHU216DAVISVP2,2014-09-19 10:18:00,
2014-09-19 06:23:00,73.0,72.7,29.92,NE,34,0.0,0.0,99,0.00,,,0.00,WUHU216DAVISVP2,2014-09-19 10:23:00,
2014-09-19 06:28:00,73.0,72.7,29.92,NE,34,0.0,0.0,99,0.00,,,0.00,WUHU216DAVISVP2,2014-09-19 10:28:00,
2014-09-19 06:33:00,73.0,72.7,29.92,NE,34,0.0,0.0,99,0.00,,,0.00,WUHU216DAVISVP2,2014-09-19 10:33:00,
2014-09-19 06:38:00,73.0,72.7,29.93,NE,34,0.0,0.0,99,0.00,,,0.00,WUHU216DAVISVP2,2014-09-19 10:38:00,
2014-09-19 06:43:00,73.0,72.7,29.93,NE,34,0.0,0.0,99,0.00,,,0.00,WUHU216DAVISVP2,2014-09-19 10:43:00,
2014-09-19 06:48:00,73.1,72.8,29.93,NE,34,0.0,0.0,99,0.00,,,0.00,WUHU216DAVISVP2,2014-09-19 10:48:00,
2014-09-19 06:49:00,73.1,72.8,29.93,NE,34,0.0,0.0,99,0.00,,,0.00,WUHU216DAVISVP2,2014-09-19 10:49:00,
2014-09-19 06:54:00,73.2,72.9,29.93,NE,34,0.0,0.0,99,0.00,,,0.00,WUHU216DAVISVP2,2014-09-19 10:54:00,
2014-09-19 06:59:00,73.3,73.0,29.93,NE,34,0.0,0.0,99,0.00,,,0.00,WUHU216DAVISVP2,2014-09-19 10:59:00,
2014-09-19 07:04:00,73.3,73.0,29.94,NE,34,0.0,0.0,99,0.00,,,0.00,WUHU216DAVISVP2,2014-09-19 11:04:00,
2014-09-19 07:09:00,73.3,73.0,29.94,NE,34,0.0,0.0,99,0.00,,,0.00,WUHU216DAVISVP2,2014-09-19 11:09:00,
2014-09-19 07:14:00,73.3,73.3,29.94,NE,34,0.0,0.0,100,0.00,,,0.00,WUHU216DAVISVP2,2014-09-19 11:14:00,
2014-09-19 07:19:00,73.3,73.0,29.94,NE,34,0.0,0.0,99,0.00,,,0.00,WUHU216DAVISVP2,2014-09-19 11:19:00,
2014-09-19 07:24:00,73.3,73.3,29.94,NE,34,0.0,0.0,100,0.00,,,0.00,WUHU216DAVISVP2,2014-09-19 11:24:00,
2014-09-19 07:29:00,73.4,73.4,29.94,NE,34,0.0,0.0,100,0.00,,,0.00,WUHU216DAVISVP2,2014-09-19 11:29:00,
2014-09-19 07:34:00,73.4,73.4,29.94,NE,34,0.0,0.0,100,0.00,,,0.00,WUHU216DAVISVP2,2014-09-19 11:34:00,
2014-09-19 07:39:00,73.5,73.5,29.95,NE,34,0.0,0.0,100,0.00,,,0.00,WUHU216DAVISVP2,2014-09-19 11:39:00,
2014-09-19 07:44:00,73.5,73.5,29.95,NE,34,0.0,0.0,100,0.00,,,0.00,WUHU216DAVISVP2,2014-09-19 11:44:00,
2014-09-19 07:49:00,73.7,73.7,29.95,NE,34,0.0,0.0,100,0.00,,,0.00,WUHU216DAVISVP2,2014-09-19 11:49:00,
2014-09-19 07:54:00,73.7,73.7,29.95,NE,34,0.0,0.0,100,0.00,,,0.00,WUHU216DAVISVP2,2014-09-19 11:54:00,
2014-09-19 07:59:00,73.8,73.5,29.96,NE,34,0.0,0.0,99,0.00,,,0.00,WUHU216DAVISVP2,2014-09-19 11:59:00,
2014-09-19 08:04:00,73.8,73.8,29.96,NE,34,0.0,0.0,100,0.00,,,0.00,WUHU216DAVISVP2,2014-09-19 12:04:00,
2014-09-19 08:09:00,74.0,74.0,29.96,NE,34,0.0,0.0,100,0.00,,,0.00,WUHU216DAVISVP2,2014-09-19 12:09:00,
2014-09-19 08:14:00,74.2,74.2,29.96,NE,34,0.0,0.0,100,0.00,,,0.00,WUHU216DAVISVP2,2014-09-19 12:14:00,
2014-09-19 08:19:00,74.4,74.4,29.96,NE,34,0.0,0.0,100,0.00,,,0.00,WUHU216DAVISVP2,2014-09-19 12:19:00,
2014-09-19 08:24:00,74.8,74.8,29.96,NE,34,0.0,0.0,100,0.00,,,0.00,WUHU216DAVISVP2,2014-09-19 12:24:00,
2014-09-19 08:29:00,75.1,75.1,29.96,NE,34,0.0,0.0,100,0.00,,,0.00,WUHU216DAVISVP2,2014-09-19 12:29:00,
2014-09-19 08:34:00,75.2,75.2,29.96,NE,34,0.0,0.0,100,0.00,,,0.00,WUHU216DAVISVP2,2014-09-19 12:34:00,
2014-09-19 08:39:00,75.3,75.3,29.96,NE,34,0.0,0.0,100,0.00,,,0.00,WUHU216DAVISVP2,2014-09-19 12:39:00,
2014-09-19 08:44:00,75.3,75.3,29.96,NE,34,0.0,0.0,100,0.00,,,0.00,WUHU216DAVISVP2,2014-09-19 12:44:00,
2014-09-19 08:49:00,75.4,75.4,29.96,NE,34,0.0,0.0,100,0.00,,,0.00,WUHU216DAVISVP2,2014-09-19 12:49:00,
2014-09-19 08:54:00,75.5,75.5,29.96,NE,34,0.0,0.0,100,0.00,,,0.00,WUHU216DAVISVP2,2014-09-19 12:54:00,
2014-09-19 08:59:00,75.6,75.6,29.96,NE,34,0.0,1.0,100,0.00,,,0.00,WUHU216DAVISVP2,2014-09-19 12:59:00,
2014-09-19 09:04:00,75.9,75.9,29.96,NE,34,0.0,1.0,100,0.00,,,0.00,WUHU216DAVISVP2,2014-09-19 13:04:00,
2014-09-19 09:09:00,76.1,76.1,29.96,NE,34,0.0,1.0,100,0.00,,,0.00,WUHU216DAVISVP2,2014-09-19 13:09:00,
2014-09-19 09:14:00,76.3,76.3,29.96,NE,34,0.0,1.0,100,0.00,,,0.00,WUHU216DAVISVP2,2014-09-19 13:14:00,
2014-09-19 09:19:00,76.7,76.7,29.96,NE,34,0.0,1.0,100,0.00,,,0.00,WUHU216DAVISVP2,2014-09-19 13:19:00,
2014-09-19 09:24:00,76.7,76.7,29.96,NE,34,0.0,1.0,100,0.00,,,0.00,WUHU216DAVISVP2,2014-09-19 13:24:00,
2014-09-19 09:29:00,76.9,76.9,29.96,NNE,17,0.0,1.0,100,0.00,,,0.00,WUHU216DAVISVP2,2014-09-19 13:29:00,
2014-09-19 09:34:00,76.9,76.9,29.96,NNE,15,0.0,1.0,100,0.00,,,0.00,WUHU216DAVISVP2,2014-09-19 13:34:00,
2014-09-19 09:39:00,77.3,77.3,29.96,NNE,15,0.0,1.0,100,0.00,,,0.00,WUHU216DAVISVP2,2014-09-19 13:39:00,
2014-09-19 09:44:00,77.6,77.6,29.96,NNE,15,0.0,1.0,100,0.00,,,0.00,WUHU216DAVISVP2,2014-09-19 13:44:00,
2014-09-19 09:49:00,77.4,77.1,29.96,NNE,15,0.0,1.0,99,0.00,,,0.00,WUHU216DAVISVP2,2014-09-19 13:49:00,
2014-09-19 09:54:00,77.7,77.4,29.96,NNE,15,0.0,1.0,99,0.00,,,0.00,WUHU216DAVISVP2,2014-09-19 13:54:00,
2014-09-19 09:59:00,77.8,77.5,29.97,NNE,15,0.0,1.0,99,0.00,,,0.00,WUHU216DAVISVP2,2014-09-19 13:59:00,
2014-09-19 10:04:00,78.1,77.8,29.96,NNE,15,0.0,1.0,99,0.00,,,0.00,WUHU216DAVISVP2,2014-09-19 14:04:00,
2014-09-19 10:09:00,77.9,77.3,29.96,NNE,15,0.0,1.0,98,0.00,,,0.00,WUHU216DAVISVP2,2014-09-19 14:09:00,
2014-09-19 10:14:00,78.1,77.5,29.96,NNE,15,0.0,1.0,98,0.00,,,0.00,WUHU216DAVISVP2,2014-09-19 14:14:00,
2014-09-19 10:19:00,78.4,77.5,29.97,NNE,24,0.0,1.0,97,0.00,,,0.00,WUHU216DAVISVP2,2014-09-19 14:19:00,
2014-09-19 10:24:00,78.9,78.0,29.97,NNE,24,0.0,1.0,97,0.00,,,0.00,WUHU216DAVISVP2,2014-09-19 14:24:00,
2014-09-19 10:29:00,79.4,78.1,29.97,NNE,23,0.0,1.0,96,0.00,,,0.00,WUHU216DAVISVP2,2014-09-19 14:29:00,
2014-09-19 10:34:00,79.8,77.9,29.97,SW,228,0.0,1.0,94,0.00,,,0.00,WUHU216DAVISVP2,2014-09-19 14:34:00,
2014-09-19 10:39:00,80.1,77.9,29.98,ESE,108,0.0,1.0,93,0.00,,,0.00,WUHU216DAVISVP2,2014-09-19 14:39:00,
2014-09-19 10:44:00,80.5,77.6,29.98,North,4,0.0,1.0,91,0.00,,,0.00,WUHU216DAVISVP2,2014-09-19 14:44:00,
2014-09-19 10:49:00,80.9,78.0,29.98,North,4,0.0,1.0,91,0.00,,,0.00,WUHU216DAVISVP2,2014-09-19 14:49:00,
2014-09-19 10:54:00,81.4,78.5,29.98,North,4,0.0,1.0,91,0.00,,,0.00,WUHU216DAVISVP2,2014-09-19 14:54:00,
2014-09-19 10:59:00,81.7,78.1,29.98,North,4,0.0,1.0,89,0.00,,,0.00,WUHU216DAVISVP2,2014-09-19 14:59:00,
2014-09-19 11:04:00,81.9,78.3,29.98,NW,309,2.0,4.0,89,0.00,,,0.00,WUHU216DAVISVP2,2014-09-19 15:04:00,
2014-09-19 11:09:00,82.1,77.9,29.98,NE,34,0.0,4.0,87,0.00,,,0.00,WUHU216DAVISVP2,2014-09-19 15:09:00,
2014-09-19 11:14:00,82.3,77.7,29.98,NNW,347,1.0,4.0,86,0.00,,,0.00,WUHU216DAVISVP2,2014-09-19 15:14:00,
2014-09-19 11:19:00,82.4,78.5,29.98,NNW,347,0.0,4.0,88,0.00,,,0.00,WUHU216DAVISVP2,2014-09-19 15:19:00,
2014-09-19 11:24:00,82.2,78.0,29.98,ENE,72,0.0,2.0,87,0.00,,,0.00,WUHU216DAVISVP2,2014-09-19 15:24:00,
2014-09-19 11:29:00,82.0,77.4,29.98,East,95,0.0,2.0,86,0.00,,,0.00,WUHU216DAVISVP2,2014-09-19 15:29:00,
2014-09-19 11:34:00,82.2,78.3,29.98,East,95,0.0,1.0,88,0.00,,,0.00,WUHU216DAVISVP2,2014-09-19 15:34:00,
2014-09-19 11:39:00,82.4,78.2,29.98,East,93,0.0,1.0,87,0.00,,,0.00,WUHU216DAVISVP2,2014-09-19 15:39:00,
2014-09-19 11:44:00,82.6,78.3,29.98,East,93,0.0,1.0,87,0.00,,,0.00,WUHU216DAVISVP2,2014-09-19 15:44:00,
2014-09-19 11:49:00,82.7,77.8,29.98,NNW,344,0.0,1.0,85,0.00,,,0.00,WUHU216DAVISVP2,2014-09-19 15:49:00,
2014-09-19 11:54:00,83.1,78.2,29.98,North,5,0.0,2.0,85,0.00,,,0.00,WUHU216DAVISVP2,2014-09-19 15:54:00,
2014-09-19 11:59:00,83.3,78.7,29.98,North,11,2.0,2.0,86,0.00,,,0.00,WUHU216DAVISVP2,2014-09-19 15:59:00,
2014-09-19 12:04:00,83.3,77.3,29.98,NE,34,0.0,3.0,82,0.00,,,0.00,WUHU216DAVISVP2,2014-09-19 16:04:00,
2014-09-19 12:09:00,83.7,77.4,29.98,North,11,1.0,3.0,81,0.00,,,0.00,WUHU216DAVISVP2,2014-09-19 16:09:00,
2014-09-19 12:14:00,83.7,77.4,29.97,NE,44,1.0,3.0,81,0.00,,,0.00,WUHU216DAVISVP2,2014-09-19 16:14:00,
2014-09-19 12:19:00,83.7,76.9,29.97,North,10,0.0,3.0,80,0.00,,,0.00,WUHU216DAVISVP2,2014-09-19 16:19:00,
2014-09-19 12:24:00,83.8,77.0,29.97,ENE,69,0.0,3.0,80,0.00,,,0.00,WUHU216DAVISVP2,2014-09-19 16:24:00,
2014-09-19 12:29:00,84.0,78.4,29.97,ENE,77,0.0,3.0,83,0.00,,,0.00,WUHU216DAVISVP2,2014-09-19 16:29:00,
2014-09-19 12:34:00,84.5,77.8,29.97,North,10,0.0,3.0,80,0.00,,,0.00,WUHU216DAVISVP2,2014-09-19 16:34:00,
2014-09-19 12:39:00,84.5,77.8,29.97,East,79,2.0,3.0,80,0.00,,,0.00,WUHU216DAVISVP2,2014-09-19 16:39:00,
2014-09-19 12:44:00,84.4,78.0,29.97,NNW,330,2.0,3.0,81,0.00,,,0.00,WUHU216DAVISVP2,2014-09-19 16:44:00,
2014-09-19 12:49:00,84.5,77.3,29.97,North,10,0.0,3.0,79,0.00,,,0.00,WUHU216DAVISVP2,2014-09-19 16:49:00,
2014-09-19 12:54:00,84.8,77.3,29.97,North,4,0.0,3.0,78,0.00,,,0.00,WUHU216DAVISVP2,2014-09-19 16:54:00,
2014-09-19 12:59:00,85.0,77.2,29.97,NE,53,3.0,4.0,77,0.00,,,0.00,WUHU216DAVISVP2,2014-09-19 16:59:00,
2014-09-19 13:04:00,85.2,77.0,29.96,ENE,66,1.0,4.0,76,0.00,,,0.00,WUHU216DAVISVP2,2014-09-19 17:04:00,
2014-09-19 13:09:00,85.1,77.1,29.96,NE,56,0.0,4.0,77,0.00,,,0.00,WUHU216DAVISVP2,2014-09-19 17:09:00,